Theta_e
336 337 338 338 338 338 337 336 335 335 336 334 332 330 329 328 328 328 328 328 327 327 327 326 327 327 327 328 329 330 331 331 331 332 333 332 332 330 328 327 328 330 332 332 331 330 329 327 327 326 324 320 318 317 316 317 321 324 323 324 327 327 328 327 323 320 317 315 314 310 305 302 301 301 301 302 304 309 311 310 310 312 315 317 317
336 336 338 338 337 337 336 335 334 334 334 334 332 330 329 329 328 328 327 327 326 325 326 327 326 326 326 327 328 330 330 330 331 331 331 331 332 332 329 327 327 329 331 332 331 331 329 328 328 326 325 322 320 318 316 316 319 322 323 322 325 328 327 327 325 321 319 317 315 312 307 304 301 300 300 300 302 307 310 310 309 309 311 313 315
335 336 336 336 336 336 336 335 335 335 333 332 332 330 330 329 327 328 327 325 325 325 325 326 326 325 325 326 327 329 330 330 330 330 330 330 331 332 330 328 327 327 329 330 331 332 330 330 329 327 326 325 324 321 315 314 315 319 323 322 323 327 326 326 326 323 321 318 316 315 310 305 303 301 299 299 301 304 309 312 311 310 308 308 311
335 335 334 334 335 334 335 335 335 336 333 332 332 331 331 327 324 327 327 324 325 325 326 326 327 326 325 326 327 328 329 330 330 329 329 329 329 330 331 330 328 327 327 327 329 331 331 330 330 329 328 327 326 324 316 312 313 315 322 323 321 325 326 325 326 325 322 320 317 316 313 308 304 302 300 299 299 302 308 313 314 314 312 310 309
334 334 334 334 334 333 334 334 334 334 333 332 333 331 330 327 325 326 324 324 324 325 327 327 327 327 326 326 326 327 327 328 329 329 329 329 329 329 330 332 331 330 328 326 326 328 330 330 330 329 329 328 327 326 321 317 314 312 319 323 320 322 326 325 325 326 324 322 319 317 315 312 306 303 300 299 298 300 305 310 314 315 314 311 309
333 334 334 334 334 334 334 333 333 333 333 333 332 331 330 328 327 327 324 324 325 326 328 329 328 329 328 327 326 327 327 327 328 329 329 329 328 329 329 330 332 332 331 329 327 326 327 329 330 330 329 329 328 327 326 323 320 316 316 320 320 320 323 325 325 326 325 323 321 319 317 315 310 305 302 300 298 298 300 303 307 310 311 309 309
333 333 334 334 334 334 334 333 333 333 333 333 333 331 331 329 328 328 328 327 326 327 328 329 331 331 330 330 329 328 327 327 328 328 328 328 328 329 329 330 331 332 332 332 330 327 326 326 327 329 330 329 329 328 327 326 325 323 320 320 319 317 320 325 325 326 327 325 322 320 319 317 314 309 304 301 299 298 298 299 301 304 306 306 309
332 332 332 333 334 334 334 334 333 333 333 333 333 331 331 331 330 330 330 329 329 329 327 327 330 332 332 332 330 329 329 328 328 327 327 328 328 328 329 330 330 331 332 332 333 331 328 326 326 327 328 329 329 329 328 328 327 327 326 323 320 316 315 321 326 326 326 326 324 322 319 318 316 313 308 303 300 299 298 297 298 299 302 305 308
330 330 330 331 332 333 333 333 333 333 333 333 333 332 332 332 332 332 332 332 330 330 329 329 329 329 330 331 332 331 329 328 328 327 327 327 328 328 329 329 330 330 331 331 332 332 331 328 326 326 326 327 328 329 329 329 328 327 327 326 325 322 316 316 321 325 326 326 326 324 321 319 317 316 312 307 302 300 298 297 297 297 299 302 305
328 329 330 331 331 331 331 332 333 333 333 333 333 333 333 332 333 333 333 332 331 331 330 330 330 328 327 329 331 332 331 329 328 327 327 327 327 327 328 329 330 330 331 331 331 332 332 330 328 327 326 326 327 328 328 329 329 329 329 327 327 327 323 320 319 321 324 327 326 325 324 321 319 318 316 312 306 301 299 297 297 296 297 298 299
327 328 328 328 329 330 330 330 331 332 333 333 333 333 333 332 333 333 334 332 331 332 332 330 330 330 329 329 330 332 332 331 329 328 327 327 327 327 327 328 330 330 330 331 331 331 332 331 330 329 328 327 326 326 327 328 328 329 330 329 328 327 327 326 323 320 321 325 326 326 325 324 322 319 317 316 312 306 301 298 297 296 296 297 297
325 326 326 326 327 328 328 328 329 331 332 333 332 332 333 333 332 333 334 333 333 333 331 330 330 330 330 331 330 330 332 332 330 329 328 327 327 327 326 327 328 329 329 330 330 331 331 332 332 331 331 330 328 327 327 327 327 327 328 329 329 328 327 327 327 325 321 321 325 327 326 325 324 321 318 317 315 311 306 301 298 297 296 297 297
323 324 324 325 325 325 327 328 328 329 330 331 331 332 332 332 333 333 333 333 333 332 330 331 332 332 331 331 330 329 330 332 331 329 327 328 328 328 327 327 327 327 328 328 329 329 330 331 331 330 331 331 330 329 328 327 327 326 327 327 328 329 329 328 328 328 324 320 321 326 327 326 325 323 320 318 317 315 311 306 300 297 297 296 297
322 323 323 324 324 325 325 327 327 328 329 330 330 331 331 331 332 332 331 332 332 331 330 331 333 333 332 331 331 329 329 332 332 330 328 328 328 328 328 328 327 327 327 328 328 329 329 330 330 330 330 330 330 330 329 329 328 327 326 326 326 327 329 329 328 328 327 323 321 322 325 327 327 325 322 319 317 317 314 310 305 299 297 296 296
322 322 323 323 323 323 324 325 326 326 327 328 329 329 330 330 331 332 331 331 331 331 330 331 332 332 331 331 332 331 330 329 330 332 331 330 329 329 329 328 327 326 326 328 329 329 329 329 330 330 331 330 330 330 330 330 329 329 328 327 326 326 326 328 329 329 328 327 325 323 322 324 326 326 324 321 319 317 316 313 308 302 298 297 296
321 321 321 322 322 322 321 322 323 324 324 325 326 327 328 329 329 331 331 330 331 330 329 330 330 331 332 331 331 331 332 329 329 332 332 331 331 330 329 329 328 327 327 328 329 329 329 330 330 330 331 331 331 330 330 330 330 329 329 329 328 327 326 326 327 329 328 328 327 326 323 321 323 325 326 324 321 318 318 315 311 305 300 297 296
321 321 320 321 321 321 321 321 321 321 321 321 323 324 325 326 327 328 329 330 330 329 329 328 329 330 331 331 331 332 333 331 331 332 331 330 332 330 330 331 331 330 330 330 330 330 331 331 331 331 332 332 331 331 331 330 330 331 330 330 329 329 328 327 325 326 328 329 328 327 326 323 321 322 324 325 323 321 319 317 315 310 302 298 297
321 321 320 320 320 321 320 320 320 320 320 319 320 321 321 323 324 325 326 328 329 329 329 328 328 328 328 329 330 331 331 331 332 333 331 330 329 329 330 330 330 331 331 331 331 331 332 332 332 333 333 332 331 330 330 331 331 331 331 331 330 329 329 328 327 325 326 328 329 328 328 326 323 321 322 325 325 323 320 318 317 314 307 300 298
321 321 321 320 320 320 320 319 319 319 319 320 320 320 321 321 321 322 323 324 325 327 327 327 327 326 326 326 326 327 328 330 331 332 333 331 328 328 329 328 329 331 330 330 331 331 332 332 332 332 332 332 332 331 330 330 331 330 330 330 329 329 328 328 329 327 326 326 328 329 328 328 326 323 322 323 325 324 322 320 318 317 313 305 299
320 320 320 320 320 320 319 318 317 317 317 317 318 318 319 319 320 321 321 321 322 323 323 324 325 325 325 326 325 325 327 328 328 329 331 332 329 329 329 328 329 330 330 330 331 331 332 332 331 331 331 332 333 332 332 331 331 332 331 329 327 326 326 327 328 328 327 326 326 329 329 328 328 326 324 323 324 325 324 322 319 318 317 311 303
319 318 317 317 317 317 316 315 314 314 313 313 314 314 315 316 317 318 319 320 320 320 321 321 321 322 323 324 324 325 326 327 326 326 328 330 330 330 329 328 328 329 329 329 329 330 330 330 330 330 330 331 332 332 332 332 332 333 333 331 328 326 326 325 326 327 328 327 326 327 328 329 329 329 327 324 324 325 325 323 321 319 318 316 309
317 316 315 315 315 315 315 314 314 313 313 313 313 313 314 314 315 315 316 317 317 318 319 319 319 320 320 321 321 322 323 324 324 324 326 327 328 328 327 327 327 328 327 326 327 327 326 326 328 329 328 329 331 331 332 333 333 333 333 332 330 327 326 326 325 326 326 327 327 326 326 328 330 329 329 327 325 325 325 325 323 321 319 318 315
315 315 315 315 315 315 315 314 314 313 313 314 314 314 314 313 314 314 314 314 314 314 315 316 316 316 317 318 319 319 320 321 320 321 322 323 323 324 324 325 325 325 324 324 326 326 325 324 326 328 328 328 329 330 331 331 332 332 331 331 329 327 326 326 326 326 325 326 327 327 326 326 327 328 329 329 328 326 326 326 325 323 321 319 317
316 315 315 316 316 316 316 315 314 314 314 314 313 314 314 314 314 313 313 313 313 313 313 313 313 313 314 314 315 317 317 318 318 318 319 320 320 320 321 321 321 322 322 323 324 324 324 324 326 328 328 328 329 329 330 330 330 330 328 328 328 327 326 326 326 326 326 325 326 326 327 326 326 327 329 330 329 328 327 326 325 324 322 321 319
317 316 316 317 317 316 316 316 315 314 314 313 313 313 314 314 314 313 313 313 313 313 312 312 312 313 312 312 312 313 314 314 315 315 316 317 318 319 319 319 319 320 319 319 321 320 321 322 323 325 325 326 328 328 329 329 329 329 328 327 327 327 327 326 327 326 326 326 325 325 326 326 326 325 327 328 329 329 328 327 326 325 323 322 320
317 317 317 317 317 317 317 316 315 314 313 313 313 313 313 313 313 313 313 313 313 312 312 312 312 312 312 312 311 312 312 312 312 313 313 313 315 316 317 316 317 317 317 316 317 318 319 320 320 322 323 324 325 326 328 328 328 328 327 327 327 327 326 326 327 327 326 326 326 326 325 326 326 325 326 326 327 328 329 328 327 326 325 323 321
316 318 318 317 318 318 318 317 315 314 313 313 313 313 313 313 313 313 313 313 312 312 312 312 312 311 311 311 311 311 311 311 311 312 312 312 312 313 314 313 314 315 316 316 316 316 317 318 319 319 319 321 323 325 325 326 326 326 326 326 327 328 327 327 326 326 326 326 326 326 325 325 326 326 326 325 326 327 327 328 328 327 326 324 323
317 318 318 318 319 318 318 317 316 315 313 313 313 313 313 313 313 313 313 312 312 312 312 312 312 312 311 311 311 311 310 310 310 311 311 312 311 311 312 312 312 313 314 314 315 316 317 317 318 318 318 320 322 323 324 324 325 325 325 325 327 328 327 327 326 325 325 325 326 326 326 326 325 325 326 325 325 326 326 328 328 327 326 325 324
318 319 318 318 319 318 318 318 316 315 313 313 312 312 312 312 312 312 313 312 312 312 312 312 312 311 311 311 311 311 310 310 310 310 310 311 311 312 311 312 312 312 312 313 314 316 317 316 317 317 317 318 321 323 322 322 322 322 323 324 325 326 326 326 326 325 325 325 325 326 326 326 326 325 325 325 325 325 325 327 328 327 327 325 325
319 319 317 318 319 318 318 318 317 315 313 313 312 312 312 312 312 312 312 312 312 312 311 312 311 311 311 310 311 310 310 310 310 310 310 310 311 311 311 312 312 312 312 312 313 314 315 315 315 315 316 317 319 320 320 320 320 320 321 322 323 324 324 324 324 324 324 325 325 325 325 325 325 325 325 325 325 325 325 325 326 327 327 327 326
318 317 317 318 319 318 318 318 317 315 314 313 312 312 312 312 312 312 311 311 312 311 311 311 311 310 310 310 310 310 309 309 310 310 310 309 310 310 310 311 312 312 313 312 312 313 313 314 315 315 315 315 316 316 317 317 317 318 319 320 320 321 321 321 321 321 322 323 325 325 325 325 325 325 325 325 325 325 325 325 325 326 327 327 327
318 317 317 318 318 318 318 318 317 316 314 313 313 312 312 312 312 312 311 311 311 311 311 310 309 309 310 309 309 309 308 308 309 309 309 309 309 308 309 310 310 311 311 311 312 312 313 313 313 313 312 313 314 314 315 315 315 316 317 317 318 318 318 319 320 322 323 323 324 324 324 324 324 324 324 324 325 325 325 325 325 325 325 326 327
319 318 317 317 318 318 318 318 317 316 314 313 313 312 312 312 312 312 311 311 311 311 311 310 309 309 308 308 308 308 307 307 307 308 308 309 309 308 308 308 309 309 310 310 311 312 312 312 312 313 313 313 313 313 313 314 315 316 315 316 316 315 316 317 319 322 323 323 324 324 324 323 323 324 324 324 324 324 325 325 325 325 325 325 326
320 319 318 318 318 318 318 317 317 316 314 314 313 312 312 312 312 311 311 310 310 310 310 309 309 308 308 307 307 307 307 306 307 307 307 308 308 307 308 308 308 308 309 309 309 310 311 311 311 312 312 312 312 312 312 312 313 313 313 314 314 313 313 315 318 320 321 322 323 323 323 323 323 323 324 324 324 324 324 324 324 325 325 325 325
321 320 319 318 318 318 318 317 317 315 314 313 313 312 312 312 311 311 310 310 310 309 309 308 307 307 307 307 307 307 306 306 306 306 306 307 307 307 308 308 308 308 308 308 308 308 309 309 310 310 310 310 311 311 311 310 310 311 311 311 311 312 312 313 315 316 318 320 322 322 322 322 323 323 323 324 324 324 324 324 323 323 324 324 324
321 321 319 319 319 318 318 317 317 315 314 313 313 312 312 312 311 311 310 309 309 309 308 308 307 306 307 307 307 306 305 305 306 306 306 306 306 306 307 307 308 308 308 308 308 308 308 309 309 309 309 309 310 309 309 309 309 309 310 310 311 311 312 312 313 313 315 318 320 320 320 319 320 322 323 323 323 324 325 325 324 323 323 323 324
321 320 320 319 319 319 318 317 316 316 314 314 313 312 312 311 311 310 310 309 309 308 308 307 306 306 306 306 305 304 304 305 305 305 306 305 305 305 305 306 306 307 308 308 308 308 307 308 308 308 309 309 309 309 309 309 309 309 309 310 310 311 311 312 312 312 313 314 316 317 318 318 319 320 322 323 323 323 324 325 325 324 323 322 323
320 320 319 318 319 318 318 318 316 315 314 314 313 312 311 311 310 310 309 309 308 307 307 306 306 305 305 304 304 304 303 303 304 304 304 305 305 305 305 305 305 305 306 307 307 307 307 308 308 308 308 308 308 308 308 308 308 309 309 309 309 310 311 312 313 313 313 314 316 318 319 320 320 320 321 322 322 323 324 324 324 325 325 323 323
320 320 318 318 318 317 317 317 316 315 315 313 312 312 311 310 310 309 309 308 307 307 306 305 304 304 303 302 302 302 302 302 303 303 303 304 304 305 305 305 305 305 305 306 306 306 306 307 307 307 307 308 308 308 308 308 307 308 308 308 309 310 312 313 314 315 316 316 317 318 318 317 318 318 319 319 320 322 322 323 323 324 324 324 324
320 320 319 318 317 317 317 317 316 315 314 313 312 312 311 310 310 309 308 307 307 306 305 304 303 302 301 301 301 300 301 301 300 300 300 300 302 303 303 304 304 305 305 305 305 305 305 305 306 306 306 307 307 307 307 308 308 308 309 309 309 310 310 310 311 312 313 314 315 316 317 317 317 317 317 318 318 320 320 321 322 322 323 324 324
320 320 319 318 317 317 317 316 315 314 313 312 312 311 310 310 309 308 308 307 306 305 304 303 302 301 300 300 300 300 299 297 295 294 294 295 296 298 300 301 302 303 304 304 304 305 305 305 305 305 306 306 306 307 307 307 308 309 309 308 308 308 307 308 309 310 311 312 313 314 315 316 318 318 319 319 319 320 320 320 320 321 322 322 323
319 319 319 318 318 317 316 316 315 313 312 311 311 310 309 309 308 307 306 305 304 303 302 302 301 301 300 300 300 299 298 296 295 294 294 294 294 294 296 298 299 301 302 303 303 304 304 304 305 305 306 306 305 306 306 307 307 307 307 308 307 307 307 307 308 308 310 311 312 314 315 315 316 318 319 319 320 321 321 320 320 320 320 321 322
318 319 318 318 318 317 316 316 315 313 311 310 310 309 308 307 307 306 304 303 302 301 301 301 301 300 300 300 299 299 298 298 298 298 298 296 296 295 294 295 295 297 298 300 302 302 303 304 304 304 305 305 305 305 305 305 305 306 306 307 307 307 306 307 307 308 309 311 312 313 314 315 316 317 318 318 319 321 321 320 320 319 319 319 320
318 318 318 318 318 317 316 315 314 313 311 310 309 308 306 305 304 303 303 302 301 301 300 300 300 300 299 299 299 299 299 299 299 298 298 298 297 297 296 296 295 295 295 296 297 299 301 302 303 304 304 304 304 304 304 304 305 305 305 306 306 306 306 306 307 307 308 309 310 311 312 314 315 316 317 317 318 319 320 319 319 319 318 318 318
318 318 317 317 317 317 316 315 313 312 310 309 308 306 304 303 302 301 301 301 300 300 299 299 299 299 299 298 298 299 299 299 298 298 299 300 299 299 298 298 297 296 296 295 295 296 297 299 300 301 302 303 304 304 304 304 304 304 304 304 304 304 305 305 306 306 306 307 308 309 310 311 312 313 315 316 317 318 319 319 318 318 317 316 316
318 317 317 317 317 316 315 314 312 310 308 307 305 303 302 301 299 299 300 299 299 299 299 298 298 298 298 298 298 298 299 299 299 299 300 299 299 299 299 299 299 298 298 298 297 296 296 296 297 298 299 300 301 302 302 302 302 302 302 303 303 303 303 304 305 305 305 305 306 307 308 309 310 311 313 314 316 317 318 318 318 317 316 316 315
317 317 316 316 316 315 314 312 310 308 306 305 303 301 301 299 297 297 299 299 298 298 298 298 298 297 297 298 298 298 298 299 299 298 298 298 297 298 298 298 298 298 298 299 298 298 298 297 297 298 298 299 299 300 300 300 300 300 301 301 301 302 302 302 302 303 303 304 304 305 306 307 308 309 311 312 314 315 316 317 317 316 316 315 314
316 316 316 316 315 314 312 310 308 306 303 302 301 299 298 296 295 297 299 299 298 298 298 297 297 297 297 297 298 298 298 298 298 297 296 295 295 296 296 297 297 297 297 298 297 297 297 297 298 298 298 298 298 298 298 298 298 298 298 299 300 300 301 301 301 302 302 303 303 304 305 306 307 308 309 310 312 314 315 316 316 315 315 314 313
315 314 315 315 314 312 309 308 307 304 300 298 297 296 295 295 296 298 299 298 298 298 297 297 297 297 297 297 297 297 297 297 297 296 295 294 294 295 295 296 296 296 296 296 296 296 295 295 295 295 296 296 296 297 297 297 296 296 295 296 298 299 300 301 301 302 302 303 304 304 305 306 307 308 309 310 311 312 313 314 315 314 313 312 312
314 314 315 314 311 309 308 306 305 301 296 295 295 295 295 294 295 297 298 297 297 297 297 297 297 297 297 297 296 295 296 297 296 295 294 293 293 294 294 294 295 295 295 296 295 295 295 294 294 294 294 294 294 294 295 294 294 294 294 295 296 298 299 300 300 301 302 303 304 304 305 306 307 308 309 310 311 312 312 312 313 312 311 310 310
313 314 313 311 308 307 306 304 303 299 295 294 295 295 295 294 293 295 296 296 296 296 296 296 297 297 297 297 296 295 295 295 294 293 292 292 292 292 293 293 293 294 294 294 295 295 294 294 294 294 294 294 294 294 294 294 293 293 293 294 295 296 297 298 299 300 301 302 303 304 304 306 306 307 309 310 311 311 311 311 311 310 309 308 307
Wind_Speed
9 10 9 7 6 7 9 9 9 8 8 8 8 7 7 7 7 7 8 8 9 10 10 11 9 8 8 8 8 7 8 8 7 6 5 5 4 4 5 4 5 7 7 7 6 5 5 5 5 5 5 4 4 4 3 5 6 5 5 5 6 5 2 1 0 2 4 5 6 7 7 8 8 8 7 7 8 8 9 9 10 10 11 12 12
12 11 7 6 7 8 8 8 9 10 10 8 7 7 7 6 6 7 9 9 9 10 11 12 11 10 9 9 9 8 7 8 8 7 6 5 5 5 6 5 5 6 8 8 7 6 5 5 5 5 5 3 3 3 2 4 6 6 5 5 6 6 4 2 2 1 3 4 4 5 6 7 7 7 7 7 7 8 8 8 9 10 10 10 11
13 11 8 7 7 7 6 7 8 9 11 10 8 8 8 7 6 7 8 9 9 9 10 12 13 12 10 10 10 9 8 8 8 8 7 6 6 6 7 7 6 6 7 8 9 8 6 5 6 6 5 4 2 1 2 4 5 6 6 4 6 7 5 3 3 1 1 2 3 4 5 6 6 7 6 6 6 7 7 8 9 9 10 10 10
12 9 6 7 9 9 8 8 8 8 12 13 10 9 8 8 7 8 8 8 10 10 9 10 12 12 11 11 11 11 10 9 9 9 8 7 7 6 7 7 8 8 8 8 9 10 8 7 6 6 5 4 3 1 2 4 4 6 7 5 6 9 7 4 3 2 1 0 2 2 3 5 5 6 6 6 6 6 7 7 8 8 9 10 10
10 8 5 6 10 11 8 8 9 12 15 15 12 10 9 8 8 10 10 10 11 11 9 9 11 11 11 11 12 12 12 11 10 10 9 8 8 7 7 8 8 9 9 8 9 11 11 9 7 7 7 5 5 4 3 4 3 5 7 6 6 9 9 6 4 3 2 1 1 1 2 3 4 5 5 5 5 5 6 6 7 7 8 8 9
6 6 5 6 8 8 7 7 9 12 15 15 14 11 11 11 10 11 12 11 12 12 10 9 10 10 11 11 12 12 12 12 11 11 10 10 9 9 8 8 9 9 9 10 9 10 11 11 9 8 8 7 6 6 5 4 3 4 5 5 5 8 10 8 6 5 3 2 2 1 1 2 2 3 4 4 4 4 4 5 6 6 7 7 8
6 5 6 6 7 7 6 7 9 10 11 13 15 13 12 12 11 11 12 12 12 12 12 10 8 9 10 10 11 11 12 12 12 12 12 11 10 10 10 9 9 9 9 9 10 10 10 10 10 10 10 8 8 7 6 6 5 4 3 4 4 7 10 9 7 6 5 3 3 3 2 1 1 2 3 4 4 3 3 4 5 5 6 6 7
6 8 8 7 7 6 7 8 8 8 8 11 15 15 13 12 11 10 11 12 12 12 13 13 10 8 8 8 10 11 12 13 13 13 13 12 11 11 11 10 10 9 9 9 10 11 10 10 10 11 11 10 10 9 7 7 6 5 5 5 3 4 9 10 8 7 7 5 4 4 4 3 1 1 2 3 3 3 3 4 4 5 5 6 7
4 7 8 8 7 5 6 7 7 7 7 9 13 14 12 12 12 11 10 11 11 11 11 12 12 11 9 9 9 10 12 13 13 13 13 13 12 12 11 11 11 11 11 10 10 10 10 10 10 10 12 12 12 10 9 9 8 7 7 7 5 4 7 10 9 8 8 8 7 5 4 4 3 2 1 1 2 2 3 3 4 5 5 5 6
3 3 5 6 6 6 5 5 6 6 6 7 10 12 13 12 12 12 11 10 10 10 10 9 10 11 11 11 10 9 10 12 12 12 13 13 13 13 12 12 11 11 11 11 10 10 10 11 11 11 12 13 14 13 12 11 11 10 9 7 7 7 6 7 9 10 9 9 9 7 6 5 4 4 3 1 1 2 2 3 3 4 5 5 6
3 3 3 4 4 5 5 5 5 5 5 6 7 9 12 13 13 11 11 11 10 9 9 9 8 9 10 11 11 11 10 10 10 12 13 13 13 13 13 12 12 12 12 11 11 10 11 11 11 12 13 13 13 14 14 13 12 12 11 9 8 8 8 7 8 9 10 11 11 10 9 7 6 5 4 3 2 1 2 2 3 4 4 5 5
3 3 3 3 2 3 4 4 5 5 6 6 6 7 9 12 13 12 11 11 10 10 10 10 9 10 10 11 13 13 11 10 11 12 13 13 13 13 13 13 13 13 12 12 12 11 11 11 11 12 13 13 13 14 14 14 14 13 13 13 11 10 9 9 9 9 10 12 12 12 11 10 8 7 6 5 4 2 2 3 3 4 4 5 5
3 3 3 2 1 1 1 2 3 5 5 5 5 6 7 9 10 12 13 13 12 12 12 9 7 8 10 10 12 14 13 11 12 13 14 13 13 14 14 13 13 12 12 12 12 12 12 12 11 12 12 12 13 14 14 14 15 15 15 15 14 13 11 11 11 10 9 11 13 13 13 12 10 9 8 7 6 5 4 3 4 5 5 5 5
3 3 3 2 2 2 2 2 1 1 2 3 3 4 5 6 7 10 12 12 12 13 12 9 6 5 5 4 6 11 13 11 11 12 13 13 13 14 14 14 14 13 12 12 12 13 13 13 13 12 12 12 12 13 14 15 16 16 16 16 16 15 14 13 13 13 11 10 12 13 14 14 13 12 10 9 9 8 6 5 5 5 5 6 6
4 4 4 3 3 3 4 4 4 4 3 3 3 2 2 3 4 6 7 8 8 9 11 10 7 4 2 2 1 4 7 9 11 9 8 11 12 13 13 13 14 14 13 12 12 13 13 13 13 13 13 12 12 12 13 14 15 16 16 17 17 17 17 16 15 15 13 12 13 14 15 16 15 14 12 12 11 11 10 8 7 6 6 7 7
5 5 5 4 4 4 4 4 5 4 4 4 5 4 3 3 2 2 3 5 5 6 8 9 8 6 3 2 2 2 1 4 9 8 5 7 9 11 12 12 13 13 12 13 13 13 13 13 13 13 13 13 13 13 13 13 14 15 17 17 18 18 18 18 17 16 15 14 15 15 15 16 17 16 15 14 14 13 13 11 10 8 8 8 8
6 6 6 5 5 4 4 4 4 3 3 3 3 3 3 3 3 2 1 2 3 4 5 4 6 8 5 2 2 2 1 2 4 5 5 7 7 9 9 9 10 11 12 13 13 12 12 13 14 13 14 14 14 14 14 14 14 15 17 19 19 19 20 20 19 18 17 16 16 16 15 16 18 17 17 17 15 14 14 14 12 11 10 9 9
6 6 6 5 5 5 4 4 4 3 3 2 3 3 3 3 2 2 2 1 2 3 3 3 2 4 5 3 2 1 2 3 2 2 3 5 6 9 7 3 4 7 9 10 10 10 10 11 12 12 13 14 15 14 14 15 15 15 16 17 18 19 19 20 21 20 19 18 17 18 17 17 18 18 18 18 17 15 14 14 14 13 12 11 11
6 6 5 5 5 5 5 5 4 4 4 3 3 3 3 3 3 3 3 2 0 2 3 2 1 1 0 2 2 1 1 1 1 1 2 3 7 10 8 6 5 4 5 6 6 6 6 7 8 10 11 12 13 14 15 15 16 16 18 18 19 20 19 19 20 21 21 20 19 19 18 18 18 18 19 19 18 17 15 15 16 15 14 13 12
6 5 5 5 5 6 6 6 6 6 5 5 5 4 4 4 5 4 3 3 2 1 2 1 1 2 2 3 2 2 3 0 1 1 2 2 5 6 5 8 8 6 5 5 5 4 4 5 6 8 8 9 10 11 12 13 13 14 16 18 20 21 20 19 19 20 21 21 20 20 19 20 20 19 20 20 20 18 17 16 17 16 15 15 14
6 6 6 7 7 8 8 7 7 6 6 6 6 5 5 5 5 5 4 4 4 2 1 1 1 1 1 2 2 2 3 1 1 2 3 2 2 2 0 1 5 6 5 5 6 6 6 7 8 8 9 10 10 10 10 10 11 11 12 15 16 16 18 19 18 18 19 21 22 22 21 20 20 20 21 21 20 20 19 17 17 17 17 16 16
7 7 8 8 8 8 8 7 7 6 6 7 6 6 6 6 6 6 6 5 5 4 3 2 1 1 1 2 3 3 4 3 2 4 5 5 4 3 3 2 3 5 7 7 9 9 10 11 10 11 12 13 12 11 11 10 11 11 11 14 14 12 13 16 16 17 17 19 22 24 24 22 21 22 22 22 21 21 22 20 18 18 18 17 18
8 8 8 8 8 7 7 7 7 6 6 6 6 6 6 6 6 6 6 6 5 5 5 4 3 2 2 1 1 1 2 3 3 4 5 5 5 5 6 6 6 7 7 7 8 10 11 13 13 12 12 13 13 12 12 12 12 13 14 16 16 13 12 13 15 16 17 18 19 22 25 25 24 23 23 23 22 22 23 23 21 20 20 19 19
8 8 8 8 7 7 7 6 6 6 6 6 6 6 6 6 6 6 6 6 6 5 5 4 3 3 3 2 2 2 1 1 2 4 5 5 5 5 6 7 7 7 7 6 8 10 11 12 13 13 12 11 11 11 11 12 12 14 16 16 16 15 13 13 14 16 17 18 18 19 23 26 27 26 23 23 24 23 23 23 22 21 21 20 20
9 9 9 9 8 7 6 5 6 6 6 6 6 6 6 6 6 6 6 6 6 6 6 5 4 3 3 2 2 2 1 1 1 3 4 5 5 6 7 7 7 8 8 9 10 10 10 11 12 13 13 12 11 8 8 10 10 11 12 12 14 15 15 14 14 15 16 18 18 19 21 24 28 29 27 24 25 26 25 24 24 23 22 22 21
10 10 10 10 8 7 7 6 6 7 6 6 6 5 5 5 6 6 6 6 6 7 6 6 5 4 3 3 2 2 1 1 1 2 3 4 5 6 6 7 7 9 10 9 9 9 8 9 10 11 11 11 10 9 9 9 8 8 9 9 12 13 13 13 13 14 15 16 18 19 20 23 26 30 30 28 27 27 27 26 26 25 24 24 24
10 10 11 11 9 9 8 7 7 7 7 6 6 5 5 5 5 6 6 6 6 6 6 6 5 5 4 3 2 2 2 1 1 2 2 3 4 5 6 6 6 7 7 7 8 8 7 7 8 9 10 10 10 9 9 8 8 9 9 9 10 11 11 11 12 13 14 15 16 17 19 21 24 28 30 31 30 29 28 28 28 28 27 26 26
10 11 12 11 10 10 9 8 8 7 7 6 6 6 5 5 5 5 5 5 6 5 5 5 5 4 4 3 2 2 2 2 2 2 2 2 3 4 5 5 6 5 5 5 5 5 5 5 6 6 7 8 7 8 8 8 8 10 10 9 10 10 12 12 12 12 13 14 16 18 19 19 22 25 28 30 31 32 32 31 30 30 30 29 28
10 12 13 12 11 11 10 9 9 8 8 7 6 6 6 5 5 5 5 5 5 5 4 4 4 3 3 2 1 1 2 2 2 2 3 3 4 4 5 5 5 5 5 5 5 5 5 5 6 6 6 6 6 7 8 8 11 12 10 10 11 11 12 13 14 13 12 14 15 17 18 18 20 22 25 28 30 31 33 33 32 31 32 33 32
12 13 14 13 12 12 11 10 10 9 9 8 7 7 6 6 6 5 5 5 4 4 4 3 3 2 2 1 0 0 0 1 2 2 3 4 4 5 5 5 5 6 6 6 6 7 8 7 8 7 8 8 7 8 9 10 13 14 11 12 12 12 15 15 16 16 15 15 15 15 15 16 17 19 21 25 28 30 32 34 34 34 34 35 35
14 14 15 15 14 13 12 12 11 11 10 9 8 7 6 6 6 6 5 5 5 4 3 3 2 2 2 1 0 0 1 2 3 3 3 4 4 5 6 6 6 7 8 8 7 7 8 8 8 9 10 11 11 12 12 12 14 15 13 12 13 15 17 17 17 18 17 17 17 16 16 16 16 17 19 21 24 27 30 33 35 36 36 36 37
15 16 16 16 16 15 14 13 13 12 11 11 10 8 7 7 6 6 6 6 6 5 4 3 3 2 2 1 1 1 2 3 4 4 4 5 5 6 6 7 7 7 9 10 9 8 10 10 12 13 13 13 13 13 14 13 14 15 14 14 15 16 17 16 16 17 16 17 18 18 17 17 17 18 18 20 21 23 26 29 33 36 37 38 39
16 17 17 17 17 16 15 14 14 13 12 12 11 10 9 8 7 7 7 7 6 6 5 5 4 3 2 2 2 2 3 4 5 5 6 6 6 7 7 7 8 8 9 11 11 11 11 11 12 12 12 13 13 13 13 14 13 14 15 15 15 16 16 15 16 16 15 15 16 17 19 19 19 19 19 20 21 22 24 25 28 32 36 38 40
17 18 18 18 17 17 16 15 14 14 13 13 12 11 10 10 9 8 8 8 7 6 5 5 5 4 3 2 2 2 3 4 5 6 6 6 7 8 8 8 9 9 9 11 12 12 12 12 12 12 12 12 13 13 12 14 14 14 15 16 15 15 15 15 15 15 15 15 15 17 20 20 20 20 20 21 22 23 24 25 26 28 32 36 40
15 17 18 18 18 17 17 16 16 15 14 13 13 11 11 11 11 10 9 8 8 7 7 6 5 4 3 3 3 3 3 4 5 6 6 7 8 8 9 9 10 11 11 11 13 14 14 14 13 13 12 12 13 13 13 13 14 15 16 16 16 15 15 15 16 16 17 17 17 18 20 21 21 22 22 22 23 23 24 24 26 27 30 33 37
15 16 17 18 19 19 19 18 17 17 16 15 14 13 12 12 11 10 10 9 9 8 7 6 5 4 3 3 3 3 4 5 5 6 6 6 7 8 9 10 10 11 11 12 13 14 14 14 13 13 13 13 14 14 13 13 13 14 15 16 15 15 15 15 16 16 18 19 19 19 21 22 22 22 22 23 23 24 24 24 25 27 29 31 34
15 15 16 17 18 19 20 19 19 18 17 17 15 14 13 12 11 11 10 9 9 8 7 6 5 4 4 4 4 4 4 5 5 6 6 7 8 9 10 10 11 11 11 12 13 14 15 16 15 14 13 14 15 14 13 14 14 14 14 14 14 15 16 16 16 16 18 20 22 22 22 21 20 20 21 23 24 24 25 25 26 26 27 30 32
15 15 16 17 18 19 19 19 20 20 19 18 17 16 14 13 12 11 10 10 9 8 7 6 5 4 4 5 5 5 5 6 6 7 7 8 9 10 11 11 12 12 13 13 14 15 16 17 17 15 14 14 15 15 14 14 14 14 14 14 14 14 14 15 15 15 16 17 18 19 18 17 16 17 18 20 23 24 25 26 27 27 27 28 31
15 16 19 20 21 22 21 21 20 20 19 18 16 15 14 14 13 13 12 10 9 8 7 6 5 5 5 5 5 6 6 6 7 7 8 9 10 11 12 12 12 12 13 14 15 16 17 17 17 16 15 15 14 14 13 12 13 14 14 14 13 11 10 11 12 13 13 14 15 17 19 19 19 21 22 22 22 24 26 26 27 27 28 29 30
17 18 20 21 23 24 23 23 22 20 19 18 16 16 15 14 14 13 12 11 10 9 7 6 6 5 5 6 6 7 6 7 8 9 10 11 11 12 12 12 13 13 14 14 14 15 16 17 17 16 16 15 14 14 13 12 13 12 11 11 12 12 11 12 13 14 15 15 16 16 18 18 20 23 24 23 23 23 24 26 27 28 29 30 30
17 18 19 20 23 24 24 23 22 23 24 23 22 21 18 15 14 13 12 11 9 8 7 6 6 6 6 7 7 8 10 12 13 14 14 15 15 15 14 13 14 14 15 15 15 16 16 16 17 16 16 15 15 14 13 12 12 11 10 11 13 14 14 14 15 15 16 16 16 16 16 17 17 18 19 19 19 20 20 22 25 28 29 30 31
16 16 17 19 21 22 23 23 22 24 27 28 27 24 19 15 14 12 11 10 9 7 6 6 6 6 7 8 9 11 14 17 17 16 15 16 17 18 18 17 16 15 15 16 16 17 17 17 17 17 16 16 15 15 15 14 13 13 13 13 14 14 14 14 14 14 14 14 15 16 17 16 16 17 17 17 17 18 18 19 22 25 27 28 30
15 15 16 18 20 22 24 24 23 24 26 26 25 23 22 18 14 11 10 9 8 7 6 5 6 7 8 9 10 11 13 15 15 15 16 17 18 19 19 20 20 20 19 18 18 17 18 19 19 18 18 18 17 16 16 16 15 15 14 14 14 14 13 13 12 11 9 10 13 16 16 15 15 17 18 17 17 17 18 18 19 20 21 21 24
14 15 16 19 21 22 23 24 23 22 23 24 24 24 24 22 16 11 9 8 7 6 6 5 6 7 8 9 10 11 12 13 15 15 16 18 18 18 19 19 20 22 23 24 23 21 20 20 20 20 20 19 18 17 16 16 16 16 15 15 15 15 15 14 14 13 11 10 13 16 17 15 14 17 18 19 18 17 18 21 21 21 21 19 19
13 15 17 18 20 22 23 23 22 21 22 25 25 24 23 21 18 12 8 7 6 5 5 6 7 8 9 10 11 12 12 13 15 15 15 15 16 17 18 18 20 22 23 24 25 26 25 24 23 23 21 20 19 18 16 16 17 18 17 17 16 16 17 17 16 16 14 12 13 16 19 17 15 17 19 18 18 17 19 21 21 20 21 20 18
13 15 16 17 19 21 22 22 20 20 24 26 25 24 21 19 17 12 7 6 5 5 6 7 8 9 10 11 12 13 13 13 13 13 13 13 14 15 15 17 19 20 21 22 23 25 27 28 28 28 25 23 23 22 19 19 21 22 22 21 20 20 21 21 21 21 19 17 16 17 19 18 16 17 19 18 17 18 19 21 21 19 19 19 17
13 14 16 17 18 20 21 20 18 19 25 27 25 23 20 17 15 10 6 5 5 6 7 8 8 9 10 11 12 13 14 14 14 15 15 14 14 15 15 16 17 18 19 20 21 23 25 27 28 28 27 26 25 25 23 21 22 22 22 23 24 24 25 25 25 25 23 21 19 18 19 18 16 18 19 17 17 18 18 19 20 19 20 19 17
14 15 16 17 19 19 19 20 20 22 25 26 24 21 18 15 11 8 6 6 6 7 8 9 9 10 11 11 12 13 14 14 15 16 17 16 15 16 17 18 18 18 19 19 21 24 27 28 29 28 28 27 26 26 25 22 22 20 20 21 22 23 25 25 24 24 22 20 20 21 20 19 17 18 19 17 17 18 17 16 16 17 21 20 15
15 16 17 16 17 19 21 23 25 27 27 25 22 19 16 12 8 6 6 6 6 8 9 9 10 11 11 12 12 13 14 14 14 15 16 15 15 16 18 19 20 20 21 20 21 24 26 29 31 33 34 34 33 33 31 30 29 27 24 23 22 21 23 22 21 22 22 19 19 20 21 21 18 17 18 17 16 18 17 16 15 17 21 20 15
16 16 17 15 15 20 25 26 28 30 28 23 20 16 13 10 7 5 5 6 7 8 9 10 11 11 12 14 15 15 15 14 15 16 16 16 16 18 20 21 23 23 22 21 22 23 24 25 27 29 32 34 34 35 36 35 35 33 30 29 26 25 26 24 21 22 22 21 20 19 21 22 19 17 18 16 16 18 18 16 15 16 18 17 15
15 14 15 15 16 21 26 27 28 30 27 22 17 14 11 8 6 4 4 6 7 9 10 11 11 12 13 15 16 17 16 15 15 17 17 17 17 19 21 22 24 24 23 22 23 24 24 24 25 24 25 26 27 29 30 31 32 32 32 32 30 30 31 29 25 20 17 17 18 18 20 21 18 18 18 14 11 13 16 17 14 11 11 11 10
Wind_Direction
215 218 217 209 208 213 216 211 206 209 208 212 218 216 221 225 221 212 201 204 213 220 226 224 220 219 220 223 220 220 217 212 212 209 209 202 206 244 249 222 195 177 175 189 193 184 185 179 177 190 184 161 145 150 169 167 159 156 154 154 145 144 164 256 134 63 55 46 46 58 68 71 72 76 78 80 85 87 91 95 100 106 104 98 92
219 221 215 209 217 224 226 220 216 218 216 216 221 218 219 218 217 216 207 206 214 220 224 224 222 220 220 222 220 217 215 212 213 212 214 214 207 230 246 235 220 199 184 186 191 199 195 185 191 193 188 175 139 119 156 173 163 164 169 170 167 156 153 203 230 89 65 47 42 52 65 69 69 74 76 80 86 90 95 96 98 104 107 106 100
221 225 223 219 224 230 226 223 226 227 224 219 221 222 218 210 211 222 217 209 212 218 224 225 222 220 219 221 222 219 214 214 216 216 218 224 218 221 240 239 230 218 203 191 186 196 204 200 201 192 190 189 173 44 120 173 174 166 173 187 184 170 156 182 222 216 98 48 41 45 59 69 69 72 76 81 88 94 97 96 95 98 101 102 104
232 233 231 230 235 239 230 225 224 227 227 220 217 220 214 206 207 218 216 203 204 211 221 226 223 221 219 217 221 223 218 216 220 222 223 228 229 225 232 236 236 231 221 208 191 191 198 207 206 195 200 199 205 274 111 157 178 169 174 194 197 183 169 173 213 228 210 35 33 34 51 68 72 73 77 81 90 100 104 103 99 98 99 99 103
242 243 230 230 239 243 237 231 227 232 235 225 218 217 212 207 203 204 203 199 201 204 210 222 225 224 223 221 221 224 224 222 224 228 228 230 234 233 229 228 233 234 229 224 206 195 197 206 207 199 208 208 200 208 172 153 164 168 176 188 197 192 183 177 202 233 223 255 345 16 36 59 73 77 78 81 90 105 114 116 115 113 110 104 103
235 247 229 226 239 241 233 234 231 233 237 228 218 212 210 207 202 199 196 197 200 198 200 213 225 226 225 226 225 226 229 229 228 229 231 233 235 237 234 227 226 229 228 229 223 210 204 207 209 206 211 211 202 200 193 186 177 161 167 182 196 199 194 183 192 220 236 263 266 219 341 12 60 75 79 83 87 104 123 130 132 130 126 118 110
220 234 225 222 238 241 232 236 231 227 229 224 216 210 209 207 205 201 193 196 198 195 198 207 222 225 222 226 229 229 230 232 232 231 232 232 236 237 235 230 227 225 222 226 228 225 216 212 213 211 211 210 209 207 195 198 204 190 186 193 192 197 201 193 187 208 229 244 237 229 250 290 25 67 76 86 90 98 122 136 141 140 135 127 120
223 232 230 224 230 237 235 233 228 222 218 213 210 209 211 210 210 207 197 199 200 196 200 207 218 225 225 226 231 234 235 234 233 234 234 233 235 235 234 232 229 228 226 225 227 231 229 223 222 220 218 215 215 214 204 203 207 207 219 217 204 197 201 201 192 199 220 222 220 240 246 251 279 358 66 84 97 102 115 134 144 148 143 137 133
218 232 236 234 225 228 235 230 222 218 212 208 210 210 212 212 212 210 205 204 202 198 202 208 216 225 234 234 234 237 240 241 238 238 236 233 235 234 233 233 230 228 231 231 229 234 239 234 231 230 229 225 222 220 212 209 211 212 215 219 236 235 202 205 203 198 213 222 221 232 242 251 272 286 300 85 107 113 120 132 145 155 156 152 147
185 215 236 239 227 227 238 231 219 213 208 210 214 214 214 214 214 212 211 213 210 207 209 213 217 224 234 238 240 242 244 244 242 241 238 231 231 232 231 232 231 230 231 234 233 231 237 240 238 237 238 236 230 228 222 213 212 217 220 219 226 226 210 212 215 210 212 219 225 229 239 251 260 266 269 264 166 138 136 144 153 161 163 163 159
166 198 228 239 234 234 242 242 233 219 207 211 214 214 214 214 215 215 216 220 221 218 219 224 228 229 234 240 244 248 250 248 242 237 236 233 229 229 229 229 229 230 229 232 234 231 231 234 233 230 235 241 237 234 231 225 216 213 220 224 222 225 227 222 225 227 220 219 224 226 234 247 250 251 256 259 245 192 174 172 171 171 171 168 161
170 185 206 228 237 236 239 240 240 231 220 224 222 212 214 217 217 217 220 221 219 221 225 230 238 242 244 247 249 250 250 249 245 236 231 232 232 231 230 230 228 228 229 229 232 233 230 228 227 224 229 239 242 240 237 235 230 218 213 216 220 227 233 228 228 235 233 228 226 223 228 242 248 245 245 247 245 231 206 192 190 186 182 181 169
158 172 186 200 201 208 216 222 228 230 228 228 225 217 218 222 219 218 224 223 216 219 224 226 237 246 250 253 253 255 257 250 243 240 234 231 233 234 233 233 232 228 229 231 232 234 233 230 229 230 230 233 240 244 244 241 240 234 223 218 217 219 226 231 233 236 239 237 233 228 227 237 248 246 244 244 239 232 219 202 199 194 190 191 185
132 146 159 162 152 120 103 98 115 173 195 183 196 209 212 216 215 219 226 229 227 223 218 213 219 235 248 264 262 258 264 265 251 240 236 233 232 234 234 235 236 231 228 229 231 233 235 234 233 234 234 233 235 240 244 244 243 243 239 233 227 221 220 226 234 239 243 241 240 239 234 235 245 247 245 243 238 233 225 213 202 199 197 195 194
125 131 138 133 125 112 101 81 74 77 81 95 101 118 150 175 205 219 219 218 224 224 218 216 214 204 219 254 265 251 266 281 266 244 232 235 234 235 236 237 238 234 231 230 232 235 238 239 237 235 236 238 239 238 240 240 243 250 250 246 242 234 226 223 226 234 241 245 245 246 244 240 243 246 246 243 239 234 225 216 209 204 201 198 197
118 123 126 123 115 109 105 90 81 79 73 70 67 71 77 87 133 195 209 201 197 208 221 222 212 198 200 208 171 187 233 267 258 252 249 249 244 239 237 239 241 238 237 235 235 238 241 242 242 241 240 241 244 245 244 240 242 253 258 256 252 247 240 233 226 224 230 242 248 249 249 244 242 244 245 243 238 227 215 210 212 212 207 203 201
114 116 118 118 113 106 106 103 96 94 91 85 74 63 57 61 77 90 152 200 167 174 199 209 213 215 214 195 172 213 196 192 243 257 254 252 256 252 243 240 242 239 240 241 240 242 244 245 246 245 244 245 245 246 247 245 240 243 252 258 258 253 248 244 237 229 226 233 244 252 252 246 243 242 242 242 236 223 211 207 210 214 216 210 205
117 116 116 116 113 108 107 106 104 101 95 97 92 74 68 58 44 65 78 66 141 145 146 152 198 218 218 232 250 230 132 145 211 265 241 235 241 253 253 246 257 248 241 245 246 247 248 250 249 247 248 249 249 248 247 248 244 239 241 250 258 259 254 249 245 239 232 228 233 244 250 243 240 242 242 239 236 226 215 209 208 212 217 218 212
124 121 121 120 115 114 110 107 107 104 97 93 89 78 73 64 53 62 67 43 106 127 110 134 117 81 265 320 322 281 265 159 203 265 273 242 230 243 244 222 245 275 261 259 256 246 246 254 255 250 249 250 249 250 248 248 248 245 243 242 248 256 258 253 248 244 240 233 228 232 241 242 240 245 244 240 236 230 221 214 209 210 213 218 218
134 129 126 125 119 115 112 108 105 102 98 91 84 79 72 65 63 66 66 56 59 95 85 81 42 49 35 14 13 273 258 300 34 289 283 285 236 238 225 214 240 263 256 259 267 271 272 269 268 262 255 250 247 249 250 249 248 245 246 248 248 252 255 255 252 247 242 238 233 228 232 239 241 244 246 242 237 235 231 222 212 210 211 213 219
135 131 126 124 120 115 111 106 101 95 94 91 85 82 76 71 69 64 67 71 71 80 92 52 7 11 347 338 334 276 242 184 27 305 274 275 253 241 183 251 274 264 245 251 262 274 274 265 269 268 263 259 252 248 248 247 246 243 245 253 255 252 251 252 252 250 245 239 237 233 231 234 235 237 243 244 239 237 239 232 217 212 212 210 215
135 133 128 125 121 117 112 105 100 95 95 96 93 89 84 79 78 75 74 75 75 75 75 78 75 25 309 293 284 279 263 238 271 302 283 266 267 278 273 276 278 264 269 277 271 271 268 261 265 263 260 260 257 252 249 246 247 247 245 251 258 254 247 248 248 248 246 241 237 235 234 234 233 235 240 242 240 236 236 239 229 215 213 212 212
144 140 137 133 126 121 115 108 105 101 100 101 100 97 96 90 86 84 82 81 81 82 79 78 80 68 38 4 347 324 301 281 276 291 289 278 278 279 269 263 262 264 275 281 273 273 269 264 265 263 258 256 254 253 252 248 247 248 246 248 254 255 246 244 242 241 242 240 237 234 234 235 235 236 238 237 237 233 230 235 232 217 212 213 212
158 155 153 149 140 133 126 116 110 107 105 104 104 104 104 101 96 92 89 90 89 88 87 84 82 72 59 45 41 44 21 324 289 281 287 295 293 283 279 280 276 273 272 269 267 267 262 258 259 258 254 250 248 248 250 250 249 250 252 251 252 252 247 242 238 236 236 237 236 233 232 233 234 236 236 234 234 233 228 227 226 218 214 213 212
173 171 168 164 159 152 143 131 121 117 113 109 108 110 111 108 107 103 98 97 95 95 92 87 84 81 73 69 59 59 67 43 303 283 288 290 284 278 281 287 288 284 279 271 267 264 255 250 251 251 252 251 250 252 256 259 258 254 256 258 256 251 249 248 244 238 234 233 233 230 229 230 231 233 234 234 234 236 233 228 224 222 220 217 216
184 182 178 174 171 165 157 146 135 129 124 121 117 116 118 116 114 112 107 104 101 98 94 89 83 77 77 79 75 66 59 36 284 271 280 279 277 284 290 290 284 280 278 272 267 264 256 249 247 250 254 254 256 259 263 273 278 267 261 263 260 254 249 249 249 245 238 234 233 232 230 229 229 230 231 232 234 236 237 233 228 226 224 224 222
190 186 182 180 178 173 166 156 148 143 135 132 130 126 125 123 121 120 116 114 113 106 98 94 86 78 74 74 76 71 44 10 329 289 282 273 274 284 290 289 281 273 274 276 272 266 263 263 260 257 258 258 257 257 265 284 286 275 277 280 273 267 261 255 252 249 246 243 239 237 236 233 231 230 230 231 231 234 238 237 233 229 228 228 228
191 186 183 184 183 178 173 167 160 155 149 146 143 139 140 138 133 132 129 127 126 121 115 107 100 91 79 69 76 68 34 3 345 329 317 291 275 271 272 282 291 292 288 286 283 273 268 276 275 265 261 263 262 265 277 285 274 275 290 294 287 281 275 269 263 257 254 252 248 246 246 243 238 234 233 232 231 231 234 236 236 233 231 230 230
191 185 184 187 187 183 181 176 170 166 162 158 156 152 152 151 148 145 142 142 137 130 127 120 116 114 99 82 86 75 32 3 344 337 327 308 295 280 269 272 282 291 297 294 295 292 289 291 288 283 282 282 280 281 284 281 277 284 291 288 289 288 279 275 270 264 259 253 251 252 252 247 243 240 237 235 233 231 231 233 235 235 233 231 231
193 187 187 188 189 189 187 183 179 176 172 169 166 164 162 158 156 154 151 152 151 141 134 130 126 127 123 107 96 115 20 340 316 313 313 306 300 290 280 274 268 271 283 290 291 290 289 286 280 280 285 288 289 289 286 281 282 287 288 283 285 281 274 273 270 268 266 257 250 250 251 249 249 247 242 239 237 235 233 232 233 235 235 233 232
200 194 191 190 191 192 192 190 187 184 181 178 175 174 173 168 166 165 163 165 167 159 152 147 145 148 148 164 273 280 305 302 283 278 289 290 292 291 285 279 270 267 272 277 280 282 283 286 286 288 290 289 288 287 285 282 279 281 285 283 279 275 273 273 272 275 274 265 256 252 252 254 254 254 250 246 242 240 237 234 232 233 234 234 235
203 199 197 196 195 195 195 194 191 190 189 186 184 184 183 180 180 176 170 173 178 174 174 170 167 175 178 211 259 274 296 297 284 275 275 273 275 280 280 277 273 268 268 271 273 277 281 286 287 288 289 287 286 284 284 284 280 281 283 279 276 278 277 274 274 277 274 268 264 260 258 257 255 254 253 252 249 246 243 239 235 234 234 235 237
203 201 202 201 199 198 198 197 196 195 194 191 190 190 190 188 185 181 176 179 184 180 180 181 178 179 191 229 256 263 283 293 289 281 276 268 265 267 266 267 268 265 265 270 276 281 283 284 285 286 288 288 285 283 283 285 283 283 283 279 277 277 274 270 268 269 270 269 266 265 263 260 256 254 252 252 252 251 249 246 242 238 236 235 236
205 203 204 203 202 202 201 200 200 200 199 197 196 195 196 193 187 184 183 185 188 183 182 186 184 184 198 231 256 264 273 281 283 282 280 273 269 268 264 264 268 267 264 268 276 283 286 287 287 286 286 284 282 281 281 282 284 285 284 281 279 276 272 268 264 264 266 265 262 262 263 260 257 254 251 250 250 250 250 249 247 244 240 237 236
209 207 205 202 202 203 203 204 202 201 201 200 199 200 200 196 191 189 188 189 191 189 190 194 195 197 210 239 264 272 274 279 281 281 281 275 273 274 271 267 268 268 266 267 272 279 284 286 286 286 286 283 281 281 280 278 279 283 284 283 281 276 271 266 263 263 264 263 260 259 261 262 260 256 253 250 248 247 248 248 247 246 243 240 238
214 211 207 203 202 201 203 205 203 200 200 200 200 203 202 199 197 193 189 191 191 193 197 200 206 216 229 251 269 277 281 285 285 282 281 278 278 279 278 274 269 267 265 263 266 271 278 282 281 282 284 283 281 280 280 279 277 278 281 284 284 281 276 270 265 262 259 258 257 258 264 268 265 259 254 251 249 247 246 247 246 245 243 242 240
217 211 206 204 205 206 205 204 203 201 200 199 199 201 201 198 198 195 192 192 192 194 199 204 215 230 245 261 273 280 283 284 284 285 284 284 284 281 279 278 276 275 271 267 267 270 274 278 279 279 279 279 279 279 279 280 280 280 278 280 282 283 282 277 271 266 262 259 258 260 266 271 270 266 260 254 250 247 245 244 245 244 243 242 241
216 204 198 199 204 209 209 207 205 203 200 199 199 198 196 194 194 194 193 192 193 195 198 206 217 231 251 266 272 275 277 279 280 282 284 284 282 279 279 279 278 278 276 273 272 272 272 274 277 278 276 274 275 277 276 276 279 283 284 283 282 279 278 276 274 270 266 263 260 258 260 265 270 273 269 260 253 249 246 244 243 243 243 242 241
218 203 200 204 207 208 209 209 207 204 201 200 198 195 194 194 193 192 191 191 193 194 197 207 217 231 250 259 263 265 270 274 277 281 285 284 281 278 276 276 275 275 274 272 272 272 273 275 276 277 277 275 273 273 275 275 275 277 280 283 284 282 279 280 280 277 273 270 265 260 258 258 257 260 264 267 262 254 250 248 246 244 244 244 243
220 210 208 211 211 210 210 208 204 201 199 195 193 194 195 197 195 191 190 190 190 193 200 208 218 231 246 253 260 264 264 266 272 277 278 278 278 278 276 275 273 272 272 272 271 270 271 273 274 275 276 276 274 274 275 274 273 274 276 280 286 289 288 285 283 280 277 274 270 266 264 260 254 252 256 262 264 261 256 253 250 247 245 245 244
225 222 221 217 213 211 209 207 202 198 193 189 192 197 197 196 196 190 186 188 191 197 204 213 224 236 250 259 262 260 262 271 279 280 275 269 266 267 270 273 273 272 271 270 270 270 270 270 271 272 273 272 273 275 275 274 275 281 284 284 284 285 285 282 279 276 274 272 270 267 263 257 252 250 247 248 256 262 262 259 255 250 246 245 244
230 230 229 224 218 210 203 202 201 197 193 193 197 200 195 192 192 187 183 186 192 200 209 223 238 248 258 264 266 268 274 284 290 289 282 274 267 262 261 262 264 267 271 270 268 268 269 270 270 271 270 270 270 272 273 275 277 281 281 280 279 280 282 281 279 276 271 269 269 269 265 257 253 251 247 242 244 249 255 258 258 254 250 248 246
231 227 224 225 224 215 206 202 199 195 196 199 201 199 194 190 185 178 180 185 189 201 214 231 250 261 268 271 275 276 278 283 287 289 287 282 277 272 266 262 258 257 259 263 266 267 268 269 269 269 268 269 269 269 271 273 274 274 275 275 276 279 278 277 279 278 272 273 276 274 270 263 257 255 253 247 241 239 243 249 252 255 257 256 252
229 226 222 223 224 219 212 206 198 192 196 201 200 196 193 190 183 174 179 185 187 205 222 240 259 271 279 281 282 280 277 275 278 282 282 279 279 277 274 271 265 258 254 254 256 260 263 267 268 266 265 268 270 268 267 271 274 275 275 274 273 276 275 272 272 271 271 282 286 279 274 270 265 262 259 252 246 242 244 246 246 249 254 255 253
227 228 225 222 221 217 211 203 193 189 195 199 197 192 190 190 187 179 178 184 192 216 234 250 268 276 282 286 285 282 279 276 276 276 274 276 279 280 278 275 269 265 261 257 254 254 256 261 265 265 263 267 269 268 266 270 275 277 277 274 273 273 272 270 269 269 270 276 280 277 273 269 268 268 263 256 251 246 244 247 248 250 252 250 248
228 229 227 223 219 215 208 196 184 185 194 194 189 187 186 187 188 182 174 183 204 234 245 255 269 274 279 282 282 282 281 278 276 274 274 279 281 280 278 273 267 267 267 264 260 257 254 254 256 259 261 263 266 268 269 269 270 271 272 272 272 272 271 271 272 273 271 268 268 272 270 266 262 264 263 259 255 249 246 247 249 253 258 256 249
232 231 230 224 218 211 201 187 173 177 186 185 181 183 184 184 186 182 177 192 220 240 248 256 265 269 273 274 275 280 281 278 275 271 273 280 283 280 277 273 270 269 267 263 259 257 254 251 251 255 259 260 261 264 265 266 268 271 274 273 270 269 271 272 272 270 266 260 255 256 262 262 257 257 259 257 255 253 247 243 242 249 259 262 255
235 234 231 223 215 204 188 177 172 172 175 177 178 180 180 179 179 181 188 211 233 242 251 259 262 265 269 268 271 278 280 279 277 273 273 277 282 282 280 277 275 272 268 266 262 258 257 256 257 259 259 258 256 256 256 258 264 274 284 281 271 266 266 266 266 264 261 256 246 243 253 259 254 253 256 253 252 255 248 239 241 251 259 262 260
235 234 229 221 211 195 179 176 177 170 165 171 175 173 172 170 167 182 208 229 244 248 256 264 264 265 264 262 269 279 281 280 276 273 274 277 281 283 283 281 280 276 272 271 269 266 265 265 264 262 261 260 259 258 257 257 259 267 277 274 265 261 262 261 262 262 259 254 243 238 248 256 251 251 256 252 248 249 246 241 247 257 260 262 264
236 232 224 212 198 187 180 179 176 167 161 165 170 167 167 168 165 187 230 250 257 261 268 270 269 270 269 269 272 274 274 274 271 270 273 278 283 285 285 283 281 278 276 275 274 273 272 272 270 266 264 264 263 262 261 260 258 259 262 260 255 256 258 258 261 264 262 256 247 240 246 253 250 248 253 253 245 242 240 239 243 252 259 265 266
236 226 216 200 181 177 178 173 168 164 160 161 166 168 169 172 168 189 244 265 269 273 280 280 280 280 278 279 278 273 271 273 275 277 279 279 282 284 284 283 280 277 277 277 276 275 274 273 272 270 269 268 265 262 261 260 258 255 254 253 250 249 253 256 257 260 262 257 247 239 243 249 249 245 245 247 245 237 231 228 230 241 253 256 253